Temp
13 13 13 13 13 13 14 14 14 14 14 14 14 14 14 13 13 13 13 13 13 13 13 13 14 14 14 14 15 15 15 15 15 15 15 15 15 16 16 16 15 15 15 15 15 15 15 15 15 15 15 14 14 14 14 13 13 14 14 14 14 14 14 14 14 13 13 12 12
12 12 13 13 13 13 13 13 14 14 14 14 14 13 13 12 12 12 12 12 12 12 12 13 13 13 13 14 14 14 14 14 14 14 14 15 15 15 15 14 14 15 15 15 15 15 15 15 15 14 14 14 14 14 14 14 13 13 13 13 13 13 13 13 13 13 12 12 12
12 12 12 12 13 13 13 13 13 14 13 13 13 13 12 12 12 12 11 11 11 12 12 12 12 12 13 13 13 13 13 14 14 14 14 14 14 14 14 14 14 14 14 15 15 14 14 14 14 14 14 14 14 14 13 13 13 13 13 13 13 13 13 13 12 12 12 12 12
12 12 12 12 12 12 12 13 13 13 13 13 12 12 12 12 11 11 11 11 11 11 12 12 12 12 12 12 12 13 13 13 13 13 13 13 14 14 14 14 14 14 14 14 14 14 14 14 14 14 14 13 13 13 13 13 13 13 13 13 13 13 13 12 12 12 12 12 12
11 12 12 12 12 12 12 12 12 12 12 12 12 12 11 11 11 11 11 11 11 11 11 11 12 12 12 12 12 12 12 13 13 13 13 13 14 14 14 14 14 14 14 14 14 14 14 13 13 13 13 13 13 13 13 13 13 13 13 13 13 12 12 12 12 11 11 11 11
11 11 11 11 11 11 11 12 12 12 12 11 11 11 11 11 11 11 11 11 11 11 12 12 12 12 12 12 12 12 12 13 13 13 13 13 13 13 13 13 13 13 13 13 13 13 13 13 13 13 13 13 13 13 13 13 12 12 12 12 12 12 11 11 11 11 11 11 10
11 11 11 11 11 11 11 11 11 11 11 11 11 11 11 11 11 11 11 11 11 11 12 12 12 12 12 12 12 12 12 12 12 12 13 13 13 13 13 13 13 13 13 13 13 13 13 13 13 13 13 12 12 12 12 12 12 12 12 11 11 11 11 11 10 10 10 10 10
10 11 10 10 10 10 10 10 10 10 10 10 11 11 11 11 11 11 11 11 11 11 11 11 11 11 11 11 11 12 12 12 12 12 12 13 13 13 13 13 13 12 12 13 13 12 12 12 12 12 12 12 12 12 11 11 11 11 11 11 11 11 11 10 10 10 10 9 9
10 10 10 9 10 9 10 10 10 10 10 10 11 11 11 11 11 11 11 11 11 11 11 11 11 11 11 11 11 12 12 12 12 12 12 13 13 13 13 12 12 12 12 12 12 12 12 12 12 12 12 12 11 11 11 11 11 11 11 11 10 10 10 10 9 9 9 9 9
10 9 9 8 9 9 9 9 10 10 10 10 10 10 10 10 10 10 10 10 10 11 11 11 11 11 11 12 12 12 12 12 12 12 12 12 12 12 12 12 12 12 12 11 11 12 12 12 12 11 11 11 11 11 10 10 11 11 10 10 10 9 9 9 8 8 8 8 8
9 9 8 8 8 8 8 9 9 10 10 10 10 10 10 10 10 10 10 10 10 10 10 10 10 11 11 11 11 11 11 11 11 11 11 11 11 11 11 11 11 11 11 11 11 11 11 11 11 11 11 10 10 10 10 10 10 10 10 9 9 9 8 8 8 8 8 7 7
8 8 8 7 8 8 8 8 9 9 9 9 9 9 9 9 9 10 10 9 10 10 10 10 10 10 10 11 11 11 10 10 11 11 11 11 11 11 10 10 10 10 10 10 9 10 10 10 10 10 10 9 9 9 9 9 9 9 9 8 8 8 8 7 7 7 7 6 6
8 8 7 7 7 8 8 8 9 9 9 9 9 9 9 9 9 9 9 9 9 9 9 9 9 9 10 10 10 10 10 10 10 10 10 10 10 10 10 10 10 10 9 9 9 9 9 9 9 9 9 9 8 8 7 7 8 8 8 8 7 7 7 7 6 6 6 6 6
7 7 7 7 7 7 8 8 8 8 9 9 8 8 8 8 8 8 8 8 9 9 9 9 9 9 9 9 9 9 9 9 9 9 9 9 9 9 9 9 9 9 9 8 8 8 8 8 8 8 8 8 8 7 7 7 7 7 7 7 7 7 6 6 6 6 6 6 5
7 7 7 7 7 7 7 8 8 8 8 8 8 7 7 7 7 7 7 8 8 8 8 8 8 8 8 7 7 7 8 8 8 8 8 8 8 8 8 8 8 8 7 7 7 7 7 7 7 7 7 7 7 7 7 7 7 7 7 7 6 6 6 5 5 5 5 5 5
6 6 6 6 6 7 7 7 7 7 7 7 7 7 6 6 7 7 7 7 7 7 7 7 7 7 7 6 6 6 7 7 7 8 7 7 7 7 7 7 7 7 7 7 6 7 7 7 7 7 7 7 7 7 7 6 6 6 6 6 6 6 5 5 5 5 5 5 5
5 6 6 6 6 6 6 7 7 7 7 6 6 6 6 6 6 6 6 6 6 6 6 6 6 6 6 6 5 5 6 6 7 7 6 6 6 6 6 6 6 6 6 6 6 6 7 7 6 6 7 7 7 6 6 6 6 6 6 6 6 5 5 5 4 4 4 4 4
5 5 5 5 5 6 6 6 6 6 6 6 6 5 5 5 5 5 5 5 5 5 5 5 5 5 5 5 5 5 5 6 6 6 5 5 5 5 5 5 5 5 6 6 6 6 6 6 6 6 6 6 6 6 6 6 6 6 5 5 5 5 4 4 4 4 4 4 4
4 5 5 5 5 5 5 6 6 5 5 5 5 5 5 5 4 4 4 4 4 4 4 4 4 4 4 5 5 5 4 5 5 5 4 4 4 4 4 4 4 4 5 5 5 6 6 5 5 6 6 5 5 5 5 5 5 5 4 4 4 4 4 4 3 3 3 3 3
4 4 4 4 4 5 5 5 5 5 5 5 5 4 4 4 4 4 4 4 4 4 4 4 4 4 4 4 4 4 4 4 4 4 4 4 4 4 4 4 4 4 4 4 4 5 5 5 4 5 5 5 4 4 4 4 4 4 3 3 3 3 3 3 3 3 2 2 2
3 3 3 4 4 4 4 4 4 5 5 4 4 4 3 3 3 4 4 4 4 4 4 4 4 4 4 4 4 4 4 3 4 4 4 4 4 4 4 3 4 4 4 4 4 4 4 4 4 4 4 4 4 4 3 3 3 3 2 2 2 2 2 2 2 2 2 2 2
3 3 3 3 4 4 4 4 4 4 4 4 3 3 3 3 3 4 4 4 4 4 4 4 4 4 4 4 4 4 4 3 4 4 4 4 4 3 3 3 3 3 3 3 3 3 3 3 3 3 3 3 3 3 3 2 2 2 2 2 2 1 1 1 1 1 1 1 1
2 3 3 3 3 4 3 3 3 3 3 3 3 3 3 3 4 4 4 4 4 4 4 4 4 4 4 4 4 4 3 3 3 3 3 3 3 3 3 3 3 3 3 3 3 3 3 2 2 2 2 2 2 2 2 2 2 1 1 1 1 1 1 1 1 1 1 1 1
3 3 3 3 3 3 3 3 3 3 3 3 3 3 3 3 3 4 4 4 4 4 4 4 4 4 4 3 3 3 3 3 3 3 3 3 3 3 2 2 2 3 3 3 3 3 3 2 2 2 2 2 2 1 1 1 1 1 1 1 0 0 1 1 1 1 1 1 1
3 3 3 3 3 3 3 3 3 3 3 3 3 3 3 3 3 3 3 3 3 3 3 3 3 3 3 3 3 2 2 2 3 2 2 2 2 2 2 2 2 2 2 2 2 2 3 3 2 2 2 1 1 1 1 0 0 0 0 -0 -0 -0 0 1 1 1 1 1 1
3 3 2 2 3 3 2 2 2 3 3 3 3 3 3 3 3 3 3 3 2 2 2 2 2 2 2 2 2 2 2 2 2 2 1 1 1 1 1 1 1 1 1 1 1 2 2 2 2 2 2 1 1 0 -0 -0 -0 -0 -0 -1 -0 -0 0 1 1 1 1 0 0
2 2 2 2 2 2 2 2 2 2 3 3 3 3 3 2 2 2 2 2 2 2 2 2 2 2 1 1 1 1 1 1 1 1 1 1 0 0 0 1 0 1 1 1 1 1 1 1 2 2 2 1 1 0 -0 -1 -1 -1 -1 -1 -0 0 1 1 1 1 0 0 0
2 2 2 2 2 2 2 2 2 2 2 2 2 2 2 2 2 2 2 2 2 2 1 1 1 1 1 1 1 1 1 1 1 1 1 1 1 1 1 1 0 0 0 0 0 -0 0 0 1 1 1 1 1 0 -0 -0 -1 -0 -0 -0 0 1 1 1 1 1 0 0 0
2 2 2 2 2 2 2 2 2 2 2 2 2 2 2 2 2 2 2 2 1 1 1 1 1 1 1 1 1 1 1 1 1 1 1 1 1 1 1 1 1 0 0 0 -0 -0 -0 -0 0 1 1 1 1 1 0 0 0 0 0 0 1 1 1 0 0 0 0 0 1
2 2 2 2 2 2 2 2 2 2 2 2 2 2 2 2 2 1 1 1 1 1 1 1 1 1 1 1 1 1 1 1 1 1 1 1 1 1 1 1 1 1 0 0 -0 -0 -0 -0 0 1 1 1 1 1 0 0 0 0 0 0 0 0 0 0 0 0 0 0 0
2 2 2 2 2 2 2 2 2 2 2 2 2 2 1 1 1 1 1 1 1 1 1 1 1 1 1 1 1 1 1 1 1 1 1 1 1 1 1 1 1 0 0 0 -0 -0 -0 -0 0 0 1 1 0 0 0 0 0 0 0 -0 -0 -0 -0 -0 -0 -0 -0 -0 0
2 2 2 2 2 2 2 2 2 2 2 2 2 1 1 1 1 1 1 1 1 1 1 1 1 1 1 1 1 1 1 1 1 1 1 1 1 1 1 1 0 0 0 0 -0 -0 -0 -0 0 0 0 0 0 -0 -0 -0 -0 -0 -0 -0 -0 -0 -0 -0 -0 -1 -1 -0 -0
2 2 2 2 2 2 2 2 2 2 2 1 1 1 1 1 1 1 1 1 1 1 1 1 1 1 1 0 0 0 0 0 0 0 0 0 0 0 0 0 0 0 0 0 -0 -0 -0 -0 0 -0 -0 -0 -0 -0 -0 -0 -0 -0 -1 -1 -1 -1 -1 -1 -1 -1 -1 -1 -1
2 2 2 2 2 2 2 1 1 1 1 1 1 1 1 1 1 1 1 1 1 1 1 1 0 0 0 0 0 -0 0 0 0 0 0 0 0 0 0 0 0 0 0 -0 -1 -1 -0 -0 -0 -0 -0 -0 -1 -1 -1 -1 -1 -1 -1 -1 -1 -1 -1 -1 -1 -1 -1 -1 -1
2 2 2 2 2 1 1 1 1 1 1 1 1 1 1 1 1 1 1 1 1 1 0 0 0 -0 -0 -0 -0 -0 -0 -0 -0 -0 -0 -0 -0 0 0 -0 -0 -0 -0 -1 -1 -1 -0 -0 -0 -0 -1 -1 -1 -1 -1 -1 -1 -1 -1 -1 -1 -1 -1 -1 -1 -1 -1 -1 -2
1 2 1 1 1 1 1 1 1 1 1 1 1 1 1 1 1 1 1 0 0 0 -0 -0 -0 -0 -1 -1 -1 -1 -1 -1 -1 -0 -0 -0 -0 -0 -1 -1 -1 -1 -1 -1 -1 -1 -0 -0 -1 -1 -1 -1 -1 -1 -1 -1 -1 -1 -1 -1 -1 -1 -1 -1 -1 -1 -2 -2 -2
1 1 1 1 1 1 1 1 1 1 1 1 1 1 0 0 0 0 0 0 -0 -0 -1 -1 -1 -1 -1 -1 -1 -1 -1 -1 -1 -1 -1 -1 -1 -1 -1 -1 -1 -1 -1 -1 -1 -1 -1 -1 -1 -1 -1 -1 -1 -1 -1 -1 -1 -1 -1 -1 -1 -1 -1 -1 -2 -2 -2 -2 -2
1 1 1 1 1 1 1 1 1 1 1 1 1 1 0 0 0 -0 -0 -0 -1 -1 -1 -1 -1 -1 -1 -1 -1 -1 -1 -1 -1 -1 -1 -1 -1 -1 -1 -1 -1 -1 -1 -1 -1 -1 -1 -1 -1 -1 -1 -1 -1 -1 -1 -1 -1 -1 -1 -1 -1 -2 -2 -2 -2 -2 -2 -2 -2
1 1 1 1 1 1 1 1 1 1 1 1 1 0 0 0 -0 -0 -0 -0 -1 -1 -1 -2 -2 -2 -2 -1 -1 -1 -1 -1 -1 -1 -1 -1 -1 -1 -1 -1 -1 -1 -1 -1 -1 -1 -1 -1 -1 -1 -1 -1 -1 -1 -1 -1 -1 -1 -2 -2 -2 -2 -2 -2 -2 -2 -2 -2 -2
1 1 1 1 1 1 1 1 1 1 1 1 1 0 0 -0 -0 -0 -0 -1 -1 -1 -1 -2 -2 -2 -2 -2 -2 -1 -1 -1 -1 -1 -1 -1 -1 -1 -1 -1 -1 -1 -1 -1 -1 -1 -1 -1 -1 -1 -1 -1 -1 -1 -1 -1 -1 -2 -2 -2 -2 -2 -2 -2 -2 -2 -2 -2 -2
1 1 1 1 1 1 1 1 1 1 1 1 0 0 0 0 0 -0 -1 -1 -1 -1 -2 -2 -2 -2 -2 -2 -2 -2 -1 -1 -1 -1 -1 -1 -1 -1 -1 -1 -1 -1 -1 -1 -1 -1 -1 -1 -1 -1 -1 -1 -1 -1 -1 -1 -1 -2 -2 -2 -2 -2 -2 -2 -2 -2 -2 -2 -2
Height
823 823 823 823 822 822 822 822 821 821 820 820 820 819 819 818 818 817 817 816 816 815 815 815 814 814 813 813 812 812 811 811 811 811 810 810 810 810 811 811 811 811 812 813 814 814 815 815 816 816 817 817 818 818 819 820 821 821 821 822 822 823 824 824 825 825 825 826 826
822 822 822 822 822 821 821 821 820 820 820 819 819 818 818 818 817 817 816 816 815 815 815 814 813 813 812 812 811 811 811 810 810 810 810 810 810 810 810 810 811 811 812 813 813 814 814 815 815 815 816 816 817 818 819 819 820 820 820 821 821 822 823 824 824 824 825 825 825
822 821 821 821 821 820 820 820 820 819 819 818 818 818 817 817 817 816 816 816 815 815 814 814 813 813 812 812 811 811 810 810 810 810 810 810 810 810 810 810 811 811 812 812 813 813 814 815 815 815 815 816 816 817 818 818 819 819 819 820 820 821 822 823 823 823 824 824 824
821 821 820 820 820 820 819 819 819 818 818 817 817 817 816 816 816 816 816 815 815 815 814 814 813 813 812 812 811 811 810 810 810 809 809 810 810 810 810 810 811 811 812 812 812 813 814 814 815 815 815 815 816 816 817 817 818 818 819 819 820 821 821 822 822 822 822 822 823
820 820 820 820 819 819 819 818 818 817 817 817 816 816 816 816 815 815 815 815 815 814 814 814 813 813 812 812 811 811 810 810 810 810 809 809 810 810 810 810 810 811 811 812 812 813 813 814 814 814 815 815 815 816 816 817 817 818 818 819 819 820 820 821 821 821 822 822 822
820 820 819 819 819 818 818 817 817 817 816 816 816 815 815 815 815 815 815 815 815 814 814 814 814 813 813 812 812 811 811 810 810 810 810 810 810 810 810 810 810 811 811 811 812 812 813 813 814 814 814 815 815 815 815 816 817 817 818 818 819 819 820 820 821 821 821 821 821
819 819 819 818 818 818 817 817 816 816 816 816 815 815 815 815 815 815 815 815 815 814 814 814 814 813 813 813 812 812 811 811 811 810 810 810 810 810 810 811 811 811 811 811 812 812 812 813 813 813 813 814 814 815 815 816 816 817 817 818 818 819 820 820 820 821 821 821 821
819 818 818 818 817 817 817 816 816 816 816 815 815 815 815 815 815 815 815 815 814 814 814 814 813 813 813 813 812 812 812 811 811 811 810 810 810 810 810 811 811 811 811 811 812 812 812 813 813 813 813 814 814 815 815 816 816 817 817 818 818 819 819 819 820 820 820 821 821
818 818 817 817 817 817 817 816 816 816 816 815 815 815 815 815 815 815 815 814 814 814 814 814 813 813 813 813 812 812 812 811 811 811 811 811 810 810 810 810 811 811 811 811 812 812 812 812 813 813 813 814 814 815 815 816 816 816 817 817 818 818 818 819 819 819 820 820 820
817 817 817 816 816 816 816 816 816 816 816 815 815 815 815 815 815 815 815 814 814 814 814 813 813 813 813 813 812 812 812 812 811 811 811 811 811 810 810 811 811 811 811 812 812 812 812 812 813 813 813 814 814 815 815 815 816 816 817 817 817 818 818 818 818 819 819 819 820
816 816 816 816 816 816 816 816 816 815 815 815 815 815 815 815 815 814 814 814 814 814 814 813 813 813 813 813 813 812 812 812 812 811 811 811 811 811 811 811 811 811 812 812 812 812 812 813 813 813 813 814 814 815 815 815 816 816 816 817 817 818 818 818 818 819 819 819 819
816 816 815 815 815 815 815 815 815 815 815 815 815 815 815 814 814 814 814 814 814 814 813 813 813 813 813 813 812 812 812 812 812 812 812 811 811 811 812 812 812 812 812 812 812 813 813 813 813 813 813 814 814 814 815 815 816 816 816 817 817 817 818 818 818 818 818 819 819
815 815 815 815 815 815 815 815 815 814 814 814 814 814 814 814 814 814 814 814 814 813 813 813 813 813 812 812 812 812 812 812 812 811 811 811 811 811 812 812 812 812 812 812 812 813 813 813 813 813 814 814 814 815 815 815 816 816 816 817 817 817 817 817 818 818 818 819 819
815 815 815 814 814 814 814 814 814 814 814 814 814 814 814 814 813 813 813 813 813 813 813 813 812 812 812 812 812 811 811 811 811 811 811 811 811 811 811 811 811 812 812 812 812 812 813 813 813 813 814 814 814 815 815 815 815 816 816 816 817 817 817 817 818 818 818 819 819
814 814 814 814 814 814 814 814 813 813 813 813 813 813 813 813 813 813 813 813 813 813 812 812 812 812 812 811 811 811 811 811 811 811 811 811 811 811 811 811 811 811 811 811 812 812 812 813 813 813 814 814 814 815 815 815 815 816 816 816 817 817 817 818 818 818 819 819 819
814 814 814 814 813 813 813 813 813 813 812 812 812 812 813 812 812 812 812 812 812 812 812 812 812 812 811 811 811 811 811 811 811 811 811 811 811 810 811 811 811 811 811 811 812 812 812 813 813 813 814 814 814 814 815 815 815 815 816 816 816 817 817 818 818 818 819 819 820
814 814 813 813 813 813 813 813 812 812 812 812 812 812 812 812 812 812 812 812 812 812 812 812 812 812 811 811 811 811 811 811 811 811 811 811 811 811 811 811 811 811 811 811 811 812 812 813 813 813 813 814 814 814 815 815 815 815 816 816 817 817 817 818 818 819 819 819 820
813 813 813 813 813 812 812 812 812 812 812 812 811 811 811 812 812 812 812 811 811 812 812 811 811 811 811 811 811 811 811 811 811 811 811 811 810 810 810 811 811 811 811 811 811 811 812 812 813 813 813 813 814 814 815 815 815 815 816 816 817 817 818 818 818 819 819 820 820
812 812 812 812 812 812 812 812 812 812 812 811 811 811 811 811 811 811 811 811 811 811 811 811 811 811 811 811 811 810 810 810 810 810 810 810 810 810 810 810 810 810 811 811 811 811 811 812 812 813 813 813 813 814 814 815 815 815 816 816 817 817 818 818 819 819 820 820 820
812 812 812 812 812 812 812 812 812 812 811 811 811 811 811 811 811 811 811 811 811 811 811 811 811 811 811 810 810 810 810 810 810 810 810 810 810 810 810 810 810 810 810 810 811 811 811 812 812 812 813 813 813 814 814 815 815 815 816 816 817 818 818 819 819 820 820 821 821
811 811 811 811 811 811 811 811 811 811 811 811 811 810 810 811 811 811 811 811 811 810 810 810 810 810 810 810 810 810 810 810 810 810 810 810 810 810 810 810 810 810 810 810 811 811 811 812 812 812 813 813 813 814 814 815 815 816 816 817 818 818 819 819 820 820 821 821 822
811 811 811 811 811 811 811 811 811 811 811 810 810 810 810 810 810 810 810 810 810 810 810 810 810 810 810 810 810 810 810 810 810 810 810 810 809 809 809 810 810 810 810 810 811 811 811 812 812 812 813 813 814 814 815 815 815 816 817 817 818 819 819 820 820 820 821 822 822
810 810 810 810 810 810 810 810 810 810 810 810 810 810 810 810 810 810 810 810 810 810 810 810 810 810 810 810 810 810 810 810 810 810 809 809 809 809 809 810 810 810 810 810 811 811 811 812 812 812 813 813 814 814 815 815 816 816 817 818 818 819 820 820 820 821 821 822 822
810 810 810 810 810 810 810 810 810 810 810 810 810 810 810 810 810 810 810 810 810 810 810 810 810 810 810 810 810 810 810 809 809 810 809 809 809 809 809 810 810 810 810 810 811 811 811 812 812 813 813 814 814 815 815 816 816 817 817 818 819 819 820 820 821 821 822 822 823
810 810 810 810 810 810 810 810 810 810 810 810 810 810 810 810 810 810 810 810 810 810 810 810 810 810 810 810 810 810 810 810 810 810 810 810 810 810 810 810 810 810 810 811 811 811 812 812 812 813 813 814 814 815 815 816 817 817 818 818 819 820 820 821 821 822 822 823 823
810 810 810 810 810 810 810 810 810 810 810 810 810 810 810 810 810 810 810 810 810 810 810 810 810 810 810 810 810 810 810 810 810 810 810 810 810 810 810 810 811 811 811 811 812 812 812 812 813 813 813 814 815 815 816 817 817 818 818 819 820 820 821 821 822 822 823 823 823
809 809 809 810 810 810 810 810 809 810 810 810 810 810 810 810 810 810 810 810 810 810 810 810 810 810 810 810 811 811 811 811 811 811 811 811 811 811 811 811 812 812 812 813 813 813 813 813 813 813 814 814 815 815 816 817 818 818 819 820 820 821 821 821 822 822 823 823 824
809 809 809 809 809 809 809 809 809 809 810 810 810 810 810 810 810 810 810 810 810 810 810 810 810 811 811 811 811 811 812 812 812 812 812 812 812 812 812 812 813 813 813 814 814 814 814 814 814 814 815 815 815 816 817 817 818 819 820 820 821 821 822 822 822 823 824 824 824
809 809 809 809 809 809 809 809 809 809 809 809 810 810 810 810 810 810 810 810 810 810 810 811 811 811 811 812 812 812 812 813 813 813 813 813 813 813 813 813 814 814 815 815 815 815 815 815 815 815 815 816 816 817 817 818 819 820 820 821 821 822 822 823 823 824 824 824 824
808 809 809 809 809 809 809 809 809 809 809 809 809 809 809 810 810 810 810 810 810 810 811 811 811 811 812 812 812 813 813 813 813 813 814 814 814 814 814 814 815 815 815 816 816 816 816 816 816 816 816 817 817 818 818 819 820 820 821 821 822 822 823 823 824 824 824 824 824
808 808 808 808 809 809 809 809 809 809 809 809 809 809 809 810 810 810 810 810 810 811 811 811 811 812 812 812 813 813 813 814 814 814 814 814 815 815 815 815 815 816 816 816 816 816 816 817 817 817 817 818 818 819 819 820 820 821 821 822 822 823 823 824 824 824 824 824 824
807 808 808 808 808 808 808 808 809 809 809 809 809 809 809 810 810 810 810 811 811 811 811 812 812 812 813 813 813 814 814 814 814 815 815 815 815 815 815 816 816 816 817 817 817 817 817 817 817 818 818 819 819 820 820 820 821 822 822 823 823 823 824 824 824 824 824 824 824
807 807 807 808 808 808 808 808 808 809 809 809 809 809 809 810 810 810 810 811 811 811 812 812 812 813 813 814 814 814 815 815 815 815 815 815 816 816 816 816 817 817 817 818 818 818 818 818 818 818 819 819 820 820 821 821 822 822 823 823 823 823 824 824 824 824 824 824 824
806 807 807 807 807 808 808 808 808 808 809 809 809 809 809 810 810 810 811 811 811 812 812 812 813 813 814 814 814 815 815 815 815 815 816 816 816 816 817 817 817 818 818 818 818 818 818 818 819 819 820 820 820 821 821 822 822 822 823 823 823 824 824 824 824 824 824 825 825
806 806 806 807 807 807 807 808 808 808 808 809 809 809 809 810 810 810 811 811 811 812 812 813 813 813 814 814 815 815 815 815 815 816 816 816 816 816 817 817 818 818 818 818 818 818 819 819 819 820 820 820 821 821 822 822 822 823 823 823 823 824 824 824 824 824 825 825 825
805 806 806 806 807 807 807 807 808 808 808 808 809 809 809 810 810 810 810 811 811 812 812 813 813 814 814 814 815 815 815 816 816 816 816 816 817 817 817 817 818 819 819 819 819 819 819 820 820 820 821 821 821 822 822 822 823 823 823 823 823 824 824 824 824 824 825 825 825
805 805 805 806 806 806 807 807 807 808 808 808 808 809 809 809 810 810 810 811 811 812 812 813 813 814 814 815 815 815 816 816 816 817 817 817 817 817 817 818 818 819 820 819 820 820 820 820 820 821 821 821 822 822 822 823 823 823 823 823 824 824 824 824 824 825 825 825 825
804 805 805 805 806 806 806 807 807 807 808 808 808 809 809 809 810 810 810 811 811 811 812 813 813 814 815 815 815 816 816 816 817 817 817 817 818 818 818 818 818 819 820 820 820 820 820 821 821 821 821 822 822 822 823 823 823 823 824 824 824 824 824 824 825 825 825 825 825
804 804 805 805 805 806 806 806 807 807 807 808 808 809 809 809 810 810 810 811 811 811 812 812 813 814 815 815 815 816 816 817 817 817 817 818 818 818 818 818 819 819 820 820 821 821 821 821 821 822 822 822 822 823 823 823 823 824 824 824 824 824 825 825 825 825 825 825 825
803 804 804 805 805 805 806 806 806 807 807 808 808 808 809 809 809 810 810 810 811 811 812 812 813 814 815 815 815 816 816 817 817 817 818 818 818 819 819 819 819 820 820 821 821 821 821 821 822 822 822 822 823 823 823 823 824 824 824 824 824 824 825 825 825 825 825 825 825
803 803 804 804 805 805 805 806 806 807 807 808 808 808 808 809 809 810 810 810 811 811 812 812 813 814 814 815 815 816 816 817 817 817 818 818 819 819 819 820 820 820 821 821 822 822 822 822 822 822 822 822 823 823 823 824 824 824 824 824 824 824 825 825 825 825 825 825 825
Wind_Speed
6 7 7 8 8 8 9 9 9 9 10 10 10 10 9 8 7 7 8 8 8 8 9 9 9 9 9 9 9 10 10 10 10 10 10 10 9 8 7 5 5 5 6 8 10 13 15 17 18 18 18 18 16 15 14 15 16 15 14 15 15 15 15 15 14 15 15 14 13
6 7 7 8 8 8 9 9 10 10 10 10 10 9 8 7 6 6 6 6 6 6 6 5 5 5 5 5 6 6 6 7 8 8 8 7 7 6 5 4 4 6 7 9 11 13 15 15 16 15 15 14 13 13 14 15 15 14 13 13 14 14 15 15 16 16 16 15 13
6 7 7 7 8 8 8 9 9 10 10 10 10 9 8 7 6 5 4 3 3 2 2 3 4 4 4 4 4 4 4 4 5 5 5 5 5 4 4 4 6 8 10 11 13 13 13 13 13 13 12 12 12 13 14 14 14 13 12 12 13 15 16 17 18 17 16 15 14
6 6 7 7 7 8 8 9 9 9 9 9 9 8 7 7 6 4 3 1 1 3 4 6 6 5 5 5 5 4 4 3 3 3 3 3 3 4 5 6 8 10 11 12 12 11 11 10 11 11 11 11 12 12 13 13 12 12 12 13 14 16 18 18 18 17 16 14 13
6 6 6 7 7 8 8 8 8 8 8 8 7 6 6 5 5 4 3 3 4 4 5 5 6 6 6 6 6 6 6 4 3 2 1 1 2 3 5 6 8 9 10 10 9 8 8 9 9 10 10 10 10 11 11 12 12 13 14 15 16 17 17 17 16 14 13 12 12
7 6 6 7 7 7 7 7 7 6 6 6 5 4 4 3 4 4 5 5 5 4 4 5 6 7 8 8 8 8 8 8 8 8 8 7 6 5 4 3 4 5 6 6 6 7 7 8 8 9 9 9 9 9 10 11 12 13 14 14 15 14 13 12 11 10 10 10 10
7 6 6 6 7 6 6 5 5 5 4 3 2 3 3 4 5 6 6 5 5 6 6 6 6 7 7 7 7 7 7 8 8 8 8 8 7 6 6 6 5 5 5 4 4 4 5 5 6 7 7 8 8 8 8 9 10 11 12 12 11 11 10 9 9 8 8 8 8
7 6 6 6 5 5 4 3 3 2 2 2 4 5 5 6 6 6 6 6 5 5 5 5 5 4 4 5 5 6 6 6 6 5 5 5 4 3 3 4 5 6 6 6 6 6 6 6 6 6 7 7 8 8 8 8 8 9 10 10 10 9 9 8 8 7 7 7 7
7 7 7 6 4 3 3 2 2 2 4 5 6 6 7 6 6 5 5 4 4 3 3 3 3 3 3 3 4 4 4 4 4 3 3 2 2 2 2 3 4 5 6 6 7 7 6 6 6 7 8 8 9 9 9 8 8 8 9 9 9 9 9 9 9 8 8 7 7
7 7 7 6 4 3 3 3 3 4 4 5 5 6 6 5 4 4 3 3 2 2 2 3 3 3 3 4 4 4 4 3 3 3 3 3 3 4 4 5 5 6 7 8 7 7 6 6 7 8 9 9 10 10 9 8 7 7 8 9 9 10 10 9 9 8 7 6 6
7 7 7 6 4 4 4 4 5 5 4 4 4 4 4 4 3 3 2 2 2 2 3 3 3 3 4 4 5 4 4 3 3 2 2 3 4 5 6 7 7 8 9 9 9 8 7 8 9 10 10 10 10 10 9 8 7 7 8 9 9 9 9 8 7 6 6 5 4
7 7 7 6 5 5 6 6 6 6 5 4 4 3 3 3 3 2 2 1 2 2 2 2 2 2 2 3 3 4 3 3 3 2 2 2 4 5 6 8 8 9 10 9 8 7 7 8 9 9 10 9 9 9 9 8 7 7 7 7 7 8 8 7 5 4 4 3 2
8 8 7 7 7 7 7 7 7 7 6 5 4 4 3 2 2 2 2 2 2 2 2 2 1 1 2 2 2 3 3 3 2 2 2 2 3 5 6 8 8 9 8 7 6 6 6 7 7 7 7 7 6 5 6 6 6 5 5 6 6 6 6 5 5 4 3 3 2
7 7 7 7 7 8 8 8 8 7 7 6 5 4 3 2 2 1 2 2 2 2 2 2 1 1 2 2 3 3 3 3 3 2 1 2 3 5 6 7 7 7 7 6 5 5 5 6 6 5 5 6 5 5 4 4 4 4 4 5 5 6 5 5 5 5 4 3 3
5 6 6 7 7 8 8 8 8 7 7 6 6 5 4 4 3 2 2 2 2 2 2 2 2 1 1 1 2 2 2 2 2 1 1 2 4 5 5 6 6 7 6 5 5 5 5 6 6 5 5 5 6 5 5 4 4 4 4 5 6 6 6 6 6 5 5 4 4
4 4 5 5 6 7 8 8 8 7 7 7 6 6 5 6 4 3 2 2 2 2 2 2 2 1 0 1 1 1 1 1 1 0 1 2 4 5 5 6 6 7 8 7 6 6 7 6 6 6 5 6 6 5 5 5 5 5 5 6 6 7 7 7 7 6 6 5 5
4 3 3 4 5 5 6 6 7 7 8 8 7 7 6 6 4 3 2 2 2 2 2 2 1 1 1 2 2 2 2 2 2 2 2 2 4 5 6 6 7 8 8 9 8 7 7 7 6 6 6 6 6 6 5 5 6 6 7 8 8 8 8 8 7 7 6 6 6
5 4 3 3 2 2 3 4 5 6 7 7 6 6 5 4 3 2 2 2 2 3 3 2 2 2 2 2 2 2 3 3 3 2 2 3 4 5 6 7 8 8 8 8 8 8 8 7 7 7 7 7 7 7 6 7 8 9 9 10 9 9 9 8 8 7 7 7 7
6 5 4 3 1 1 2 3 3 4 4 4 4 4 4 2 1 1 2 3 3 2 2 2 2 2 2 2 2 2 3 3 3 2 3 4 5 5 6 7 8 8 8 8 8 8 8 8 8 9 9 9 9 9 9 10 11 12 12 12 12 11 10 9 8 7 7 7 7
7 7 5 4 3 2 2 2 2 2 2 3 3 3 2 2 2 3 4 4 4 3 3 3 3 3 3 3 3 2 3 3 2 3 4 5 5 6 7 8 8 9 9 9 9 9 9 9 9 10 11 11 12 12 12 13 14 14 14 14 13 12 11 10 10 9 9 9 9
7 8 8 7 6 5 4 5 4 4 4 4 4 3 2 2 3 4 5 5 4 4 4 4 4 4 4 4 4 3 2 2 4 5 6 7 7 8 8 9 9 10 10 10 9 9 9 10 10 11 12 13 14 14 15 15 15 15 15 15 15 14 13 13 12 13 13 14 14
7 7 7 7 7 6 5 5 6 5 5 4 3 3 3 4 5 5 6 5 4 4 5 6 6 6 6 6 5 4 3 5 7 8 8 8 8 8 8 9 10 10 11 10 10 10 10 11 12 13 14 15 15 15 16 16 16 16 16 15 15 15 15 15 15 15 16 16 16
6 6 5 5 5 5 5 4 4 4 3 2 3 4 4 6 7 7 7 6 5 5 6 7 7 7 7 7 6 5 6 7 9 9 8 8 8 8 8 9 9 10 11 11 10 10 11 12 13 14 15 16 16 16 16 16 16 16 16 16 15 15 15 16 16 16 16 16 16
5 4 4 4 5 5 5 4 4 4 3 3 5 6 7 7 8 8 7 7 6 6 6 7 7 7 7 7 7 7 8 9 9 9 8 8 8 8 9 9 9 9 9 9 9 10 11 13 14 15 16 16 16 16 16 15 15 16 16 16 16 16 16 16 16 16 16 16 15
5 5 5 5 6 6 6 6 6 6 6 5 6 6 7 7 7 7 7 7 7 7 7 7 7 7 8 8 8 8 9 9 9 10 10 11 11 11 11 11 10 10 10 10 10 10 11 13 14 15 16 16 16 16 16 16 16 16 17 17 17 17 16 16 15 15 15 15 14
6 6 6 6 6 6 7 7 7 7 6 6 6 6 6 6 6 7 7 8 8 8 8 8 9 9 9 10 10 10 10 10 10 11 12 13 13 13 13 13 13 12 11 11 11 11 12 13 14 15 16 16 17 17 17 17 17 18 18 17 17 16 16 15 15 14 14 13 13
7 7 7 6 6 7 7 7 7 7 7 6 6 6 6 6 7 8 9 9 10 10 10 11 11 11 12 12 12 11 11 11 12 12 12 12 12 13 13 13 13 13 12 12 11 12 12 13 14 14 15 17 17 18 18 18 18 18 17 16 15 15 15 14 13 13 12 11 10
8 7 6 6 6 7 7 7 8 8 8 7 7 6 6 7 8 9 10 11 11 12 12 13 13 13 13 13 12 11 11 12 12 12 12 12 12 13 13 13 14 13 12 12 12 12 13 13 13 14 15 16 17 18 18 18 17 16 15 15 14 13 13 12 11 11 9 9 8
8 7 6 6 7 8 9 9 10 10 9 8 7 7 7 9 10 11 12 12 13 13 14 14 14 14 14 13 12 12 12 12 12 12 12 13 13 13 14 14 15 14 13 13 13 13 13 13 13 14 14 15 16 17 17 17 16 15 14 14 13 12 11 11 10 9 8 7 7
8 7 7 7 8 9 10 11 11 10 10 9 8 8 9 10 11 12 13 13 13 14 14 14 15 14 14 14 13 13 13 13 13 14 14 14 14 14 15 15 15 15 14 13 13 13 13 13 14 14 14 14 15 15 16 15 15 14 13 13 12 11 10 9 9 8 7 7 7
8 7 7 8 9 10 11 12 11 11 9 9 8 9 10 12 12 13 13 13 14 14 14 14 14 14 14 14 14 14 14 14 15 14 14 14 14 14 14 15 15 14 14 13 13 13 14 14 14 14 14 14 14 14 14 14 14 13 12 11 11 10 9 9 8 7 7 6 6
8 8 8 10 10 11 12 12 11 11 10 9 9 10 11 12 13 13 13 13 14 14 14 14 14 14 14 14 14 15 14 14 14 15 15 15 15 15 14 14 14 14 14 13 13 13 14 14 15 15 14 14 13 13 13 12 12 11 11 10 9 8 8 7 7 6 6 5 5
8 8 9 11 11 12 12 12 12 11 10 10 10 11 12 12 12 12 13 13 14 14 14 14 14 14 14 14 14 14 14 14 14 14 14 14 14 15 15 14 14 14 14 13 13 13 14 14 14 14 13 13 12 12 11 11 11 10 10 9 8 7 7 6 6 5 5 5 4
8 9 10 11 12 12 12 12 12 12 11 11 11 12 12 13 13 13 13 13 14 14 14 14 14 14 14 14 14 13 13 13 14 14 14 14 14 14 14 14 14 13 13 13 13 13 13 13 13 13 12 11 11 10 10 10 10 9 9 8 8 7 6 6 5 5 5 5 5
9 10 11 12 12 13 13 13 13 13 12 12 12 13 13 13 14 13 13 13 13 13 13 13 13 13 13 13 13 13 14 14 14 15 15 15 15 15 15 15 14 13 12 12 12 12 12 12 12 12 11 11 10 10 10 10 9 9 9 8 8 7 6 6 6 5 5 5 5
9 10 11 12 13 13 13 13 13 13 13 13 13 14 14 14 13 13 13 12 12 12 12 13 13 13 13 13 13 14 14 15 15 15 15 15 15 16 16 16 14 13 12 12 12 12 11 12 11 11 11 11 10 10 10 10 10 9 9 9 8 7 7 7 6 6 6 6 6
9 10 12 13 13 14 14 14 14 14 14 14 14 14 14 13 13 12 11 11 11 11 12 13 13 13 13 13 13 14 14 14 14 14 14 14 15 15 16 16 15 13 12 11 11 11 11 11 11 11 11 11 11 10 10 10 10 10 9 9 9 8 8 8 8 8 7 7 7
9 11 12 13 14 14 15 15 15 15 14 14 13 13 13 12 12 10 9 9 9 11 12 13 14 14 14 14 14 14 14 14 14 14 14 14 14 15 16 16 15 14 12 11 11 11 11 11 11 11 10 10 10 10 10 10 10 10 9 9 9 9 9 8 9 9 8 8 8
9 11 13 14 15 15 15 15 15 15 14 14 13 13 12 12 10 9 7 7 7 10 12 14 15 14 14 14 14 14 14 14 13 14 14 14 14 15 15 15 15 14 13 11 11 11 11 11 11 10 10 9 9 9 9 9 9 9 9 9 9 9 9 9 9 9 8 8 8
9 10 12 14 15 15 15 15 15 15 14 13 13 13 12 11 10 9 7 6 6 8 11 14 15 15 15 15 15 14 14 14 13 14 14 14 14 14 14 14 14 14 13 12 10 10 10 10 10 10 10 9 9 8 8 8 8 9 9 8 8 8 8 8 8 8 8 8 7
9 10 12 13 14 15 15 15 15 14 13 13 13 13 12 11 10 9 8 7 6 8 11 14 15 16 15 15 15 15 14 14 14 14 14 14 14 14 14 13 14 14 13 12 10 9 10 10 10 10 9 9 9 8 8 7 7 7 8 7 7 7 7 7 7 7 7 7 7
Wind_Direction
297 297 297 297 297 296 296 296 297 297 296 294 290 289 289 287 285 286 289 292 294 294 294 293 292 292 292 291 289 287 285 283 282 279 276 273 269 266 261 249 234 224 221 222 226 228 229 228 228 227 225 223 222 225 233 242 245 244 240 236 235 234 234 235 239 243 244 243 240
302 301 301 301 300 299 297 296 296 295 294 290 286 283 280 276 273 277 285 291 293 295 299 305 310 315 316 311 304 299 295 290 286 282 278 274 270 266 258 241 224 216 214 214 216 217 218 218 218 219 220 222 228 235 241 244 245 243 239 235 232 232 234 236 239 240 239 236 236
306 307 307 305 303 300 297 295 294 293 289 285 281 278 272 264 258 261 271 284 296 320 359 21 20 16 11 1 346 332 317 305 295 289 283 277 272 264 249 228 215 209 207 205 206 206 208 211 214 218 223 229 236 240 240 237 235 233 231 230 231 232 234 236 237 236 234 230 231
307 309 308 306 304 300 297 296 294 291 285 281 278 272 265 255 245 235 223 207 84 66 61 56 52 47 40 35 29 22 10 353 325 302 282 266 255 245 232 221 212 208 205 203 203 206 213 221 227 231 235 237 237 235 232 228 227 227 229 230 232 233 233 233 232 230 226 224 224
307 307 306 305 304 302 300 298 294 290 284 280 274 266 258 249 230 206 177 144 109 86 74 69 68 65 61 56 55 54 53 56 67 87 112 160 203 215 216 212 209 207 207 209 214 222 230 236 239 240 239 236 232 229 227 227 227 227 226 226 226 226 226 225 222 220 217 215 215
306 305 305 304 304 304 304 302 297 291 286 280 271 255 239 223 197 173 153 135 119 108 100 94 91 87 83 79 75 72 71 74 83 90 93 93 95 102 119 145 170 185 197 210 221 230 235 235 232 227 224 222 223 224 226 229 228 224 218 214 213 213 213 211 210 208 205 203 199
305 304 302 301 303 305 305 303 298 290 283 275 243 207 185 171 164 156 148 140 134 129 125 120 108 99 92 84 76 69 66 66 71 77 81 80 79 77 78 85 97 113 132 155 175 187 195 201 203 199 199 205 207 209 212 216 217 212 205 199 200 203 204 202 204 201 196 193 190
300 297 294 294 298 300 300 292 282 266 231 180 164 157 153 152 149 147 145 142 136 131 128 123 112 99 86 73 61 53 46 42 42 49 58 61 57 52 55 68 86 99 109 119 130 139 146 151 157 163 168 174 175 175 177 184 192 195 194 191 192 194 195 193 193 190 188 190 191
292 288 285 283 286 287 280 254 227 195 173 159 153 148 145 141 138 137 135 132 126 121 115 107 93 85 79 72 62 54 47 39 33 35 47 59 66 74 84 97 106 111 115 122 127 130 133 137 140 144 149 153 153 151 152 159 168 176 180 179 176 175 175 175 173 175 179 187 192
282 278 275 274 268 257 245 223 200 185 173 162 157 153 149 144 139 134 124 115 112 107 101 89 85 88 92 92 86 79 70 63 56 61 77 98 108 114 120 129 133 132 132 133 136 138 143 146 146 145 145 146 144 142 142 149 160 167 168 166 164 161 160 160 162 166 172 181 191
269 265 263 262 244 229 226 218 201 194 191 185 176 169 164 160 155 146 135 126 121 113 105 97 94 97 100 100 98 94 88 82 78 81 95 114 122 125 129 135 140 141 139 138 141 144 146 146 146 145 145 145 144 142 144 150 159 161 158 155 155 154 153 155 161 166 170 179 191
257 253 250 246 226 214 213 213 205 201 204 209 208 199 189 182 174 167 156 149 156 141 119 105 101 100 99 98 98 95 92 92 93 104 125 137 139 140 141 142 144 144 143 143 146 149 148 145 144 145 145 144 142 141 144 150 155 155 152 152 156 157 155 155 162 166 163 164 169
249 244 239 230 216 208 206 208 206 205 206 212 219 223 218 203 185 166 153 157 168 157 136 124 114 98 82 76 71 69 68 67 70 87 118 135 140 143 148 152 155 156 155 155 161 162 157 151 152 153 154 153 150 149 152 153 153 153 155 162 168 166 158 151 148 144 138 138 142
245 240 232 222 212 206 205 206 206 205 205 208 215 220 218 205 186 164 159 164 161 153 144 138 126 95 63 54 52 53 49 46 41 47 80 117 127 134 142 150 159 164 167 167 173 175 170 163 165 170 172 169 164 168 172 166 158 159 163 169 168 161 150 141 134 132 133 137 139
246 240 230 220 212 206 205 205 204 201 198 198 202 205 200 191 178 171 171 174 165 159 158 157 140 113 53 36 52 54 48 45 41 46 88 120 124 128 134 144 154 161 166 166 167 169 167 164 164 167 170 169 166 171 179 178 173 170 169 165 159 152 145 138 135 136 140 148 152
247 238 228 220 216 214 212 210 204 194 187 185 186 188 190 188 179 176 187 199 198 196 196 193 167 143 181 247 250 296 352 356 336 251 169 144 136 136 142 147 154 159 160 160 160 160 158 156 157 160 164 166 169 174 177 175 171 165 161 157 154 149 145 142 141 143 148 156 159
232 223 214 214 218 221 220 213 200 187 177 173 174 181 191 195 186 178 193 240 264 265 258 246 251 233 227 237 252 273 298 307 293 265 223 180 161 159 161 161 159 156 155 155 157 158 158 158 160 164 168 171 174 175 172 166 160 156 154 152 151 149 146 145 146 148 152 156 156
213 204 190 183 196 213 211 198 184 175 170 169 176 192 207 210 197 178 188 241 260 271 280 286 275 258 244 237 249 277 298 308 301 277 239 210 195 188 181 175 167 160 154 155 158 162 166 170 170 169 169 173 174 172 167 161 156 153 152 151 150 149 148 148 151 154 156 154 150
216 212 201 182 169 181 190 178 163 160 168 182 204 221 223 208 206 201 205 216 220 228 246 259 249 237 230 227 237 271 292 298 293 270 236 216 206 198 191 183 176 171 167 164 165 168 173 176 174 170 167 167 165 163 161 157 152 150 149 147 146 145 146 147 150 152 151 148 142
223 229 232 228 228 228 226 216 215 217 225 232 233 228 210 175 205 215 212 209 205 212 229 239 231 218 210 213 229 257 280 278 256 227 207 196 191 187 184 179 176 174 173 172 170 172 173 174 169 165 162 160 157 155 152 150 146 144 142 141 140 140 141 141 140 137 133 128 125
229 237 245 247 246 243 241 244 249 252 251 243 228 206 183 180 204 213 213 209 207 214 228 232 225 216 211 211 215 228 244 229 205 195 189 183 180 177 174 171 169 168 169 170 171 171 171 168 163 159 157 155 152 149 147 144 141 139 138 136 136 136 136 135 132 128 123 118 115
236 243 247 247 242 235 234 243 250 251 245 231 212 194 191 200 209 210 208 203 207 220 227 224 215 208 205 206 209 214 212 197 188 184 183 182 179 176 172 169 168 167 166 167 169 169 167 162 158 156 153 151 149 146 144 142 140 139 137 137 137 137 137 135 132 128 123 117 114
239 242 239 232 224 220 222 232 239 237 227 204 185 182 193 204 209 206 200 195 201 214 220 213 203 195 194 197 203 208 203 191 184 181 181 181 179 174 171 170 172 171 168 167 167 166 162 158 155 153 152 149 147 146 145 143 142 141 139 139 138 137 135 134 131 128 124 119 115
233 227 216 205 202 201 202 202 197 192 189 188 189 191 194 198 200 198 193 188 190 197 200 194 186 183 182 184 186 188 187 181 176 172 169 164 159 157 158 162 165 164 162 159 158 157 155 152 151 151 150 150 148 146 145 144 142 140 138 135 133 131 129 128 127 125 123 120 117
218 213 206 200 194 192 191 189 183 180 180 183 187 188 187 186 184 181 178 175 174 174 173 169 167 166 165 163 160 159 159 157 155 149 142 134 131 131 134 136 136 136 137 138 141 144 145 146 146 147 147 147 146 144 143 141 139 137 134 131 130 129 128 128 127 125 124 121 118
212 212 207 201 194 189 187 184 179 175 173 172 173 172 169 167 166 164 161 157 154 153 152 151 150 149 146 140 134 131 129 129 128 124 119 115 113 113 113 112 113 115 118 123 129 134 137 139 141 142 143 143 142 140 138 138 137 136 134 132 132 133 133 132 130 128 126 124 123
215 211 204 198 193 189 185 181 176 171 167 164 163 161 161 162 161 157 152 147 145 144 143 141 138 134 129 124 120 118 117 116 115 114 113 112 111 110 109 107 107 109 113 117 123 128 132 134 137 139 140 140 140 139 138 137 136 135 134 134 135 136 135 132 128 126 126 127 131
214 206 198 194 192 189 185 182 178 173 168 165 162 163 167 169 164 158 152 149 146 143 139 136 132 129 125 122 121 121 120 120 120 120 121 121 119 117 114 112 111 113 116 120 123 126 129 131 134 136 137 138 138 137 136 134 133 132 132 133 133 132 130 127 126 126 129 134 140
211 200 190 190 192 190 187 185 181 175 169 165 163 166 169 168 163 158 155 151 148 143 139 136 135 133 131 128 127 127 126 126 125 125 125 123 121 119 117 116 115 117 120 122 123 124 126 128 130 132 132 132 131 129 128 127 128 129 129 129 129 128 128 128 130 135 139 142 144
206 196 189 190 192 191 189 186 181 175 170 166 166 168 169 166 162 158 155 152 148 144 142 141 140 138 135 134 132 131 130 129 128 126 124 123 121 119 118 118 118 120 121 123 123 122 123 126 127 127 126 125 124 123 124 124 127 128 129 129 130 131 133 135 139 142 143 143 144
203 197 193 193 192 191 189 186 181 177 172 168 168 170 169 165 161 158 156 153 149 146 145 145 143 140 138 139 137 135 134 132 130 128 126 124 122 121 121 120 120 121 122 122 122 122 124 126 125 124 122 121 121 123 125 128 130 131 132 133 134 135 138 139 140 140 138 138 141
203 201 198 195 192 191 190 187 183 179 175 172 171 171 169 165 161 159 157 154 151 148 146 146 143 141 140 141 140 138 135 132 129 128 127 126 124 123 122 121 122 122 122 122 123 125 126 125 123 121 120 120 122 125 129 133 135 136 136 136 136 136 137 137 135 134 133 134 137
205 204 200 195 192 191 190 188 185 181 178 174 172 171 169 166 162 159 157 156 153 149 146 145 142 139 138 138 137 136 133 131 129 128 128 127 126 124 123 122 121 122 123 124 125 125 124 122 120 119 120 122 125 129 133 136 138 139 138 138 137 136 136 135 135 136 137 138 138
206 204 200 196 193 191 190 187 185 182 179 175 173 172 170 168 164 161 158 157 155 153 150 149 146 144 142 141 139 138 136 135 133 132 131 130 128 126 124 123 124 125 126 127 126 124 121 119 119 120 122 124 127 130 133 135 136 135 134 134 134 134 136 138 141 143 145 146 145
205 203 199 196 193 191 188 186 184 182 179 175 172 171 171 170 167 164 161 161 161 159 157 157 156 153 151 150 148 145 143 141 139 138 136 135 133 130 127 124 125 126 126 126 124 121 119 119 120 122 124 126 127 128 129 128 128 127 126 126 128 130 132 135 139 142 144 147 148
204 203 199 196 193 190 187 185 183 182 179 175 172 171 170 170 169 167 167 168 169 168 166 166 165 162 159 157 155 152 149 146 144 143 142 141 138 134 129 125 124 124 124 124 122 120 119 120 121 123 124 124 124 123 123 122 121 120 120 121 122 124 127 129 131 133 136 139 143
204 205 201 196 192 189 187 186 184 181 179 177 175 174 172 171 169 170 173 178 179 178 175 173 171 168 165 162 159 155 152 150 149 148 147 145 141 136 130 127 125 124 124 124 123 120 119 120 120 121 121 121 120 121 120 119 118 117 117 118 118 120 122 125 126 128 130 133 138
203 205 203 198 193 190 189 188 186 184 182 180 178 177 174 172 168 170 176 185 188 185 181 177 174 172 169 165 161 157 155 153 153 152 150 147 142 137 133 131 129 128 127 126 123 121 120 119 119 119 118 118 118 118 118 117 116 116 116 116 117 120 123 125 127 128 129 132 135
201 205 205 201 197 194 192 191 190 188 186 182 179 177 174 171 168 169 175 187 193 190 184 178 175 172 169 165 161 159 157 156 157 156 152 148 143 140 137 135 133 132 131 129 127 124 122 120 120 119 118 117 116 116 116 116 116 116 116 117 118 121 124 128 130 131 131 132 134
199 205 206 204 201 198 196 195 194 192 188 183 179 176 174 171 169 171 177 186 192 190 184 178 173 170 167 164 162 160 158 158 159 157 152 148 144 142 139 136 134 133 134 135 133 129 125 122 121 120 119 117 115 113 113 114 115 116 118 118 120 122 126 129 134 135 136 134 134
197 204 207 206 204 202 200 198 196 192 188 184 180 178 175 173 173 177 183 188 191 188 181 175 170 167 164 163 162 161 160 159 158 155 152 148 146 143 141 140 138 137 138 140 141 135 127 123 120 119 116 114 112 110 110 111 113 117 119 120 121 124 127 132 138 142 144 143 140